Temp
12 12 12 13 14 17 19 20 21 22 23 24 24 24 24 25 25 24 30 32 31 30 28 29 31 32 32 33 33 32 31 33 32 30 34 36 34 35 35 33 32 32 30 29 27
12 12 12 13 14 15 20 22 21 22 23 24 24 24 25 25 24 30 32 32 31 30 28 33 33 34 33 34 34 24 26 35 34 35 35 34 34 34 34 34 33 31 31 29 25
12 12 12 12 14 15 19 22 23 23 23 24 24 24 25 24 28 36 32 32 31 30 31 35 35 35 32 34 35 26 26 37 35 37 36 35 35 33 33 32 30 28 30 29 26
12 12 12 12 13 16 19 22 23 23 24 24 24 24 25 21 34 33 32 32 31 29 30 35 27 26 23 28 35 28 32 38 37 37 32 35 36 34 34 33 32 31 31 28 25
12 12 12 13 15 17 18 23 23 23 24 24 24 25 24 30 36 32 32 31 30 28 32 29 25 28 31 32 32 30 30 37 38 37 37 37 35 35 33 33 32 32 30 29 29
11 11 12 13 15 19 20 22 23 24 24 24 24 24 24 33 34 32 30 29 31 31 33 37 32 33 36 36 35 33 37 37 33 37 34 36 33 35 33 33 32 31 31 31 30
11 11 12 13 15 19 21 21 23 24 24 24 24 21 30 35 35 32 32 31 33 34 36 39 38 35 26 27 31 37 36 37 35 35 28 28 26 34 34 33 32 31 31 31 32
11 11 12 15 17 21 22 22 23 24 24 24 24 22 32 36 35 34 33 33 34 36 37 37 38 26 27 30 29 31 35 32 36 33 30 29 26 34 35 34 33 33 33 33 33
11 12 14 17 20 21 22 23 24 24 24 24 22 26 35 34 35 35 35 35 36 36 37 37 37 22 26 27 25 27 26 29 35 35 29 26 27 35 35 34 33 33 34 33 34
11 12 17 21 21 21 22 22 23 24 24 22 25 31 35 36 36 36 36 36 38 38 38 37 37 31 23 22 29 34 34 35 35 36 28 25 25 35 35 35 34 34 34 34 34
11 15 19 21 21 21 22 22 26 28 29 34 36 35 39 37 37 37 37 37 38 37 36 38 28 26 30 28 29 38 37 36 37 37 33 29 32 35 35 36 35 34 34 34 34
12 16 21 21 22 22 20 29 35 36 33 35 37 37 39 39 36 37 37 37 37 36 38 37 25 25 30 33 33 40 38 37 38 38 34 36 35 35 36 36 36 35 35 35 35
13 18 21 23 22 21 24 30 34 35 36 36 37 38 38 38 37 37 38 37 37 37 38 37 30 31 33 36 39 40 38 38 38 38 37 37 35 35 36 37 37 37 37 37 36
17 21 23 23 20 28 30 32 34 35 34 35 36 37 38 38 37 40 38 38 38 37 39 35 35 36 37 37 39 37 40 40 39 31 28 34 30 30 35 35 36 36 37 37 36
21 23 24 23 20 32 35 34 34 35 32 36 37 39 39 37 38 39 39 38 37 38 39 38 35 36 39 40 39 37 39 39 33 25 22 26 25 26 26 30 35 36 37 37 37
22 24 24 22 22 30 33 34 34 33 32 37 38 37 37 38 39 40 38 39 39 38 39 39 32 36 41 41 41 41 40 32 27 24 25 29 27 25 25 29 36 36 37 37 38
23 25 24 24 33 33 33 35 33 33 38 37 37 37 37 37 38 38 37 37 36 35 36 38 39 40 41 40 42 38 34 25 24 30 30 32 30 34 32 35 37 36 37 37 37
24 26 25 27 30 31 33 34 32 37 38 39 38 38 37 38 38 38 37 36 38 38 38 37 37 40 41 40 40 34 31 23 25 28 33 27 34 36 39 39 38 39 36 35 37
25 25 24 28 30 30 34 33 34 38 39 39 39 37 37 39 39 38 37 37 38 38 37 38 38 40 41 41 41 30 33 34 33 35 36 30 28 37 38 37 38 35 29 26 22
22 31 33 34 32 33 33 31 38 39 40 39 37 38 37 38 38 38 38 39 39 40 40 39 35 36 39 40 41 41 41 38 39 36 33 27 22 31 36 36 37 35 31 26 24
23 33 37 35 34 35 34 35 39 40 40 38 37 36 39 38 38 38 39 40 40 40 41 40 34 35 36 38 39 41 40 41 41 40 35 34 34 37 35 36 36 36 36 35 36
29 33 36 35 35 28 32 37 32 39 33 33 33 33 35 37 39 39 36 40 41 41 39 39 33 33 34 38 42 42 41 42 40 39 38 36 35 38 36 37 37 36 36 36 36
28 32 34 36 34 33 34 38 38 35 32 29 31 34 35 38 38 39 35 40 41 40 39 40 38 31 37 40 42 41 42 42 42 42 36 36 34 37 37 36 36 35 35 35 35
28 35 35 38 32 31 30 36 38 39 39 39 39 34 31 34 35 38 35 39 40 40 31 38 37 32 34 33 37 39 41 41 41 39 34 32 33 35 36 35 35 35 34 34 33
31 34 25 31 36 36 37 36 37 36 39 39 38 29 28 29 31 33 34 39 40 32 38 40 35 36 36 36 37 39 41 41 40 39 37 32 32 31 36 35 35 35 35 35 34
31 30 32 33 24 34 35 38 38 37 38 36 37 38 29 23 25 32 31 30 39 39 39 41 33 35 35 35 37 39 41 41 41 41 34 33 30 24 22 36 36 35 35 34 34
27 28 29 31 36 37 38 31 32 38 38 38 37 37 37 32 33 34 31 29 30 32 39 40 34 29 32 34 35 39 40 41 41 39 34 33 23 23 26 35 35 35 34 33 33
Height
788 786 784 782 781 780 779 778 778 777 777 777 776 776 775 773 772 771 766 759 759 760 762 762 760 756 754 754 751 751 775 772 775 780 762 745 760 755 756 765 769 772 787 798 810
787 784 783 780 779 778 778 778 777 777 776 777 776 776 775 772 770 765 758 757 759 761 763 759 757 754 755 749 749 785 795 756 752 749 753 755 757 757 761 764 772 778 789 803 815
786 783 781 779 777 776 776 776 776 776 776 776 775 775 774 773 769 748 753 755 758 759 758 754 752 760 768 753 747 786 791 740 748 740 743 751 755 759 765 778 782 793 792 806 816
784 782 779 777 776 774 774 774 774 775 775 775 775 775 774 774 769 749 752 755 757 759 760 751 764 786 785 781 749 789 757 737 740 739 755 754 748 760 764 772 775 785 795 807 818
783 780 777 776 774 773 772 773 773 774 774 774 774 774 774 769 750 749 752 755 757 760 756 760 774 775 773 760 757 768 761 738 738 740 744 745 756 761 772 774 781 788 799 807 812
781 778 775 774 772 771 771 771 772 773 773 774 774 774 775 769 747 748 752 754 755 757 751 744 748 749 741 745 751 753 740 739 747 744 757 758 769 764 772 775 786 790 797 801 807
779 776 773 772 770 769 770 770 771 772 773 773 773 774 769 755 749 751 753 753 753 751 741 735 738 744 768 776 756 738 752 742 749 753 784 779 809 774 770 775 787 791 795 800 801
777 774 771 769 769 768 769 769 770 771 772 773 773 776 762 750 749 751 752 753 753 747 741 740 745 776 791 775 779 772 760 780 751 762 788 791 821 770 767 775 785 787 789 793 794
775 772 769 768 767 767 768 768 770 770 771 772 774 772 756 748 748 747 748 747 747 745 745 745 752 796 799 807 816 793 817 788 767 755 789 800 811 769 766 774 781 783 784 788 789
774 770 768 767 767 767 767 769 770 771 772 775 771 771 750 746 743 743 744 743 741 742 746 746 751 782 810 820 819 780 774 765 767 759 785 803 811 772 767 771 777 780 782 785 787
772 768 767 767 767 767 769 771 773 770 767 750 743 747 729 736 739 742 741 741 741 744 763 743 796 815 787 789 778 741 750 761 751 744 765 785 781 773 767 767 773 778 780 783 784
770 768 767 766 767 767 767 759 741 740 756 745 733 735 729 730 742 739 740 746 747 762 749 758 822 797 777 768 768 733 750 759 743 738 760 758 766 766 765 764 764 770 772 774 778
769 767 766 766 767 768 763 753 746 742 742 740 734 733 734 736 741 739 737 740 747 755 752 758 789 767 767 746 738 737 750 754 753 745 743 758 772 771 762 758 759 760 761 762 769
767 766 766 767 771 760 756 748 747 744 757 747 742 734 730 733 742 724 731 738 744 752 741 757 747 748 745 753 736 758 730 733 747 789 827 780 826 798 770 768 762 762 760 758 762
766 765 765 765 761 753 748 747 746 746 787 738 732 718 722 737 731 728 725 734 750 744 739 746 753 750 740 732 731 751 733 738 769 821 851 833 844 817 801 793 767 761 757 754 754
765 764 765 767 763 754 751 748 747 769 789 740 726 734 736 732 726 720 729 730 728 741 732 731 746 741 722 715 717 717 732 776 802 822 858 818 830 823 807 779 755 751 751 751 750
764 763 762 760 754 753 751 747 774 776 721 739 739 731 733 739 732 731 742 749 759 772 766 738 733 719 712 731 714 734 768 839 859 826 828 797 803 772 759 746 737 743 743 745 749
763 760 759 755 756 756 749 752 783 730 728 711 722 728 742 729 729 733 742 754 739 744 750 761 764 727 710 725 734 760 776 850 870 836 806 815 787 772 736 728 730 726 733 748 750
762 759 756 748 751 756 751 768 759 723 712 718 721 738 736 723 725 732 741 744 733 733 757 748 751 715 710 708 714 778 771 754 779 762 771 813 815 757 744 744 736 742 759 770 779
764 754 742 741 746 749 756 762 727 708 705 709 735 723 740 731 736 733 734 720 725 714 714 732 769 741 721 712 706 720 713 755 742 783 810 841 852 802 764 760 746 747 759 773 777
761 747 725 735 742 742 755 740 716 706 703 721 727 737 721 725 725 730 727 713 706 709 709 724 763 761 738 737 734 724 733 725 719 732 781 799 789 750 761 752 750 746 745 751 750
757 757 736 734 748 762 754 723 718 707 718 732 731 741 732 722 722 721 734 712 696 700 724 720 770 775 760 720 697 699 714 712 738 750 742 759 786 737 745 741 744 749 748 750 751
764 746 733 729 758 760 738 718 716 728 732 753 752 727 726 718 729 716 734 702 697 706 718 714 736 789 753 721 704 718 710 708 707 709 760 763 784 739 741 744 745 753 755 755 755
769 744 733 724 734 754 759 728 722 705 709 709 711 719 747 740 718 723 731 710 703 704 717 714 740 776 784 772 740 732 716 709 711 737 768 785 780 761 755 756 755 756 758 760 761
763 749 756 755 734 734 724 725 727 730 708 707 720 741 764 771 762 745 730 714 709 718 711 715 756 751 753 744 737 726 715 713 720 723 750 779 776 772 757 760 760 757 759 762 762
767 769 757 750 754 728 720 719 720 725 717 732 728 723 750 789 787 762 749 759 722 713 716 707 762 752 763 747 733 729 713 711 712 712 752 764 782 786 793 750 756 761 765 768 768
776 775 769 752 733 725 720 738 740 718 717 713 723 731 733 747 729 729 734 738 735 740 717 715 748 782 787 768 759 743 719 711 710 711 743 769 798 791 782 761 758 763 769 771 771
Wind_Speed
13 11 10 10 9 9 9 8 7 6 7 5 5 5 5 7 7 8 10 6 10 10 12 11 14 11 12 6 10 8 4 7 9 3 9 9 13 12 13 14 15 10 20 27 29
14 11 9 9 9 9 8 8 7 6 6 5 6 6 6 7 9 16 15 9 6 13 13 14 11 10 8 5 2 9 6 5 17 6 13 12 9 8 5 11 7 21 28 31 26
15 11 9 9 9 8 8 7 7 6 6 5 6 6 6 6 8 3 17 9 10 18 19 10 3 3 12 11 11 5 6 8 15 8 14 10 11 10 2 17 20 17 26 24 22
16 13 10 9 8 8 8 7 6 6 6 5 6 6 6 3 2 7 14 8 12 18 18 7 10 2 10 9 7 9 16 7 7 12 10 9 9 10 16 15 24 23 24 23 17
17 14 11 9 9 8 8 7 6 6 6 5 6 6 3 8 6 14 14 14 14 15 21 25 8 9 20 15 11 14 14 5 7 11 9 11 9 19 18 20 21 22 23 21 18
19 15 12 10 9 8 7 7 5 5 5 5 6 5 5 10 8 18 17 18 16 19 25 19 15 19 14 6 5 19 5 7 15 7 18 9 10 20 20 21 19 20 19 20 21
19 15 12 9 9 8 6 6 5 6 5 6 6 2 10 11 8 15 18 19 17 17 20 7 11 18 13 21 16 2 8 6 16 7 12 16 3 13 21 20 21 20 19 19 19
19 16 12 9 7 5 3 5 6 6 6 6 5 3 8 8 8 16 18 18 18 19 18 15 11 23 10 9 11 11 2 1 6 22 10 9 8 18 22 19 21 21 19 18 20
20 15 11 8 3 2 6 7 6 7 6 6 3 8 11 9 14 18 20 20 20 16 15 13 7 20 8 7 5 6 8 10 8 14 12 16 9 12 20 18 18 17 16 11 9
19 14 8 2 3 7 9 8 6 8 5 5 14 8 10 12 17 18 20 20 13 12 13 14 6 6 3 6 10 9 9 17 14 11 22 14 17 14 18 19 17 16 16 14 16
18 12 5 1 7 11 12 5 5 6 14 12 13 13 12 19 17 18 19 17 16 15 13 16 10 4 21 25 21 12 13 9 10 9 23 22 20 15 16 17 19 17 16 14 11
16 9 1 5 10 16 7 7 7 6 8 20 12 20 8 21 12 16 18 17 16 16 16 10 15 24 25 29 37 2 6 8 12 9 14 12 15 15 14 15 17 17 18 18 16
15 5 2 7 12 13 14 20 6 7 6 15 11 10 7 10 16 19 18 18 20 17 17 11 11 20 24 29 4 3 2 5 8 7 4 7 7 14 12 13 14 16 16 18 17
13 2 6 8 6 12 16 12 7 5 6 16 18 13 16 13 21 17 22 18 19 19 19 7 11 18 26 13 8 2 6 7 5 11 6 17 2 6 7 12 13 14 16 15 19
12 5 11 16 12 9 4 4 7 4 6 15 17 12 12 14 16 18 21 19 20 19 14 14 21 21 18 3 10 7 14 7 25 19 5 5 6 9 11 14 14 15 16 16 18
11 7 11 10 9 12 10 8 6 6 6 12 10 11 18 17 21 15 15 17 17 17 18 20 19 31 12 7 6 7 7 28 13 9 5 15 9 6 6 16 20 19 18 16 15
11 10 18 9 5 7 7 8 5 8 6 11 14 15 18 17 17 17 16 18 16 12 15 18 16 15 11 10 12 22 19 7 7 5 4 15 5 8 22 20 21 20 19 19 16
11 11 13 24 8 10 10 8 12 11 9 9 12 16 16 19 17 16 15 17 19 19 16 12 15 17 14 14 9 12 15 7 8 6 14 18 4 8 7 10 1 12 18 2 7
11 9 11 18 16 11 8 6 8 3 2 11 14 13 18 15 11 13 17 18 20 20 20 12 9 10 8 11 15 7 6 17 12 20 8 4 14 7 7 8 4 20 19 12 17
8 13 24 13 14 12 8 19 3 4 2 8 13 11 10 12 8 12 17 18 19 22 20 9 6 11 13 14 13 12 10 6 9 3 6 10 16 9 10 6 7 18 18 24 30
6 5 13 13 10 7 9 13 6 3 9 5 8 16 9 14 12 14 11 13 16 17 16 7 5 7 7 19 21 13 12 12 14 4 4 8 5 13 9 9 11 11 12 14 10
9 6 13 13 6 5 8 9 7 3 21 13 5 3 11 13 10 9 2 11 13 13 13 11 9 5 23 29 22 12 10 12 10 4 12 11 7 14 13 12 12 12 11 10 6
7 7 30 17 2 6 22 6 4 10 18 7 13 18 25 16 6 10 6 9 4 10 1 9 12 4 10 14 8 7 12 10 15 7 14 6 8 11 11 12 13 12 10 7 7
5 6 4 6 9 11 14 11 5 3 2 4 10 21 19 14 4 1 13 11 10 11 6 3 13 10 6 13 19 12 4 7 13 7 12 8 12 10 12 13 13 14 11 10 9
5 2 3 5 7 21 21 5 14 3 10 4 3 17 7 8 19 6 9 12 10 4 4 6 8 7 3 12 18 18 8 4 7 5 4 12 11 4 12 13 12 13 12 12 11
6 6 8 15 9 25 6 9 5 9 6 4 12 9 17 5 10 5 13 7 11 10 9 14 4 7 4 10 18 19 13 7 9 5 19 14 9 17 20 15 14 12 11 12 11
17 18 7 10 17 14 10 4 22 10 7 5 8 9 7 16 14 14 14 3 6 6 14 14 9 5 3 6 18 13 12 7 9 19 27 15 7 6 13 9 15 14 12 12 11
Wind_Direction
337 330 318 309 307 302 301 301 296 291 290 285 280 279 283 281 270 243 238 220 189 191 179 189 216 233 242 252 231 66 9 126 110 311 120 117 88 77 115 138 155 152 141 131 135
344 331 319 306 299 294 287 291 289 287 284 280 277 285 289 290 280 253 227 218 201 184 194 202 211 227 250 237 117 54 325 91 140 143 85 103 110 136 160 109 101 107 126 130 131
342 333 318 307 295 289 279 273 275 278 277 271 269 277 284 304 273 197 197 208 197 190 209 185 256 344 326 308 122 131 226 93 110 113 80 113 120 143 91 108 118 126 138 137 136
343 334 325 308 294 286 277 264 260 265 261 257 265 272 284 282 296 130 164 185 179 193 231 226 30 3 187 260 113 132 264 72 135 110 141 113 119 103 81 92 137 140 137 136 152
343 336 326 308 293 283 274 264 247 249 255 250 255 268 302 231 239 156 160 162 183 203 237 118 181 243 235 220 120 145 259 151 106 119 129 106 88 106 100 112 126 137 140 155 171
345 337 324 312 289 278 269 261 241 231 225 234 250 265 258 253 110 162 159 169 200 211 237 213 196 220 257 12 19 170 74 163 31 147 72 112 50 117 121 130 137 145 147 159 155
344 336 322 311 292 275 260 246 217 204 214 214 231 265 258 268 166 167 175 185 205 230 254 236 327 10 25 346 327 217 146 191 153 123 60 347 121 147 135 139 142 154 162 168 177
345 336 325 308 294 292 230 210 180 191 190 215 218 238 271 185 197 187 190 204 221 240 280 322 340 93 15 246 3 344 141 237 128 105 123 130 292 136 145 152 156 159 166 177 174
345 334 325 314 314 169 163 170 164 172 188 187 222 221 240 173 212 202 200 217 224 240 260 282 318 113 207 6 25 286 161 223 160 129 107 61 261 180 157 164 163 166 161 171 184
343 335 328 340 155 159 157 151 156 146 178 232 264 239 246 214 201 205 210 228 235 243 247 248 244 92 40 154 225 191 212 220 138 175 124 150 237 161 175 172 172 169 170 186 180
345 337 333 159 165 154 129 126 190 197 210 203 192 219 243 206 183 205 210 226 239 249 263 257 63 323 254 224 227 187 192 168 118 181 152 164 184 162 182 187 174 174 181 184 198
344 337 340 169 172 169 183 241 6 2 192 239 273 211 212 193 175 203 203 226 236 243 253 231 101 236 261 249 246 240 85 153 129 190 179 143 145 159 180 194 181 187 186 179 184
342 330 164 171 176 202 225 278 307 292 249 192 216 217 211 184 207 198 201 221 243 235 251 263 161 243 250 284 97 70 152 197 178 179 41 135 147 155 184 190 190 190 200 185 175
341 253 175 169 188 219 226 246 267 275 261 163 207 215 197 203 232 214 191 223 237 265 258 144 166 263 271 267 63 313 300 198 183 66 360 357 327 321 188 200 194 201 201 197 171
341 218 186 181 307 267 49 306 315 253 272 150 180 198 186 196 213 216 185 226 246 243 255 252 192 217 245 128 117 215 255 78 93 81 41 340 60 278 302 274 197 206 202 200 177
337 213 201 223 268 263 314 316 253 232 285 155 147 184 198 208 228 176 191 217 243 262 267 260 77 262 268 337 255 305 325 58 89 103 189 189 180 268 225 223 194 195 201 207 192
329 216 200 223 233 350 311 272 242 248 185 146 166 187 197 193 217 217 189 207 226 226 251 264 234 264 255 269 252 102 62 28 17 209 157 130 168 202 219 230 195 189 197 187 187
318 237 235 240 260 291 277 254 270 236 168 161 169 179 199 192 206 179 202 218 217 249 256 218 241 228 236 236 267 80 114 123 220 232 145 156 77 89 90 98 351 210 166 135 183
305 274 250 251 234 236 258 227 200 275 55 157 163 190 207 187 216 180 207 212 222 214 247 238 248 295 284 282 241 141 112 215 211 246 82 46 360 83 62 60 99 95 103 68 324
316 268 252 207 178 204 234 250 173 349 265 180 192 216 195 180 203 199 193 216 225 212 230 267 327 311 298 312 288 285 309 256 234 304 116 126 175 218 110 78 102 117 132 151 204
266 253 126 152 173 237 271 307 141 140 314 18 329 328 221 184 196 191 206 225 226 192 216 196 4 273 299 276 267 222 238 248 266 259 131 153 100 111 120 112 109 115 139 170 152
290 272 269 161 213 34 275 267 1 136 4 356 56 278 348 296 189 224 331 236 191 248 206 161 243 220 213 237 242 249 249 267 268 220 72 109 108 113 134 119 98 100 109 111 84
301 276 233 197 299 196 256 271 144 131 157 233 188 211 189 247 159 237 58 16 173 238 212 230 199 129 278 238 221 265 256 252 281 299 40 83 129 123 115 119 113 113 116 120 117
284 292 346 260 164 159 301 341 18 235 311 314 339 35 0 353 12 242 172 213 180 226 14 344 81 91 330 289 309 292 245 267 273 64 83 87 128 123 125 125 118 111 113 114 106
245 339 239 295 274 221 224 257 239 115 290 290 357 129 245 345 309 13 352 140 192 134 213 241 78 3 230 278 302 279 305 176 259 84 106 164 125 203 135 133 129 126 129 126 114
335 341 328 295 359 297 300 236 131 294 13 92 319 125 116 74 249 337 223 325 196 173 212 238 121 154 266 251 262 262 234 274 316 299 105 160 64 14 331 132 136 130 123 116 112
358 342 293 283 285 282 259 69 334 337 325 295 319 322 319 188 224 248 135 10 305 270 232 247 111 39 285 242 282 233 256 248 238 103 133 135 155 355 294 191 148 145 141 130 117